[[{"header":{"parameterUnit":"m.s-1","parameterCategory":1,"la1":30.2991,"la2":30.254,"lo1":-89.0895,"lo2":-89.0444,"dy":0.0017,"dx":0.0017,"nx":28,"ny":28,"refTime":"2026-02-10T03:00:00:Z","depth":0,"parameterNumber":2,"parameterNumberName":"U-component_of_WINDS"},"data":[0,0,0,0,0,0,0,0,0,0,0,0,0,0,0,0,0,0,0,0,0,0,0,0,0,0,0,0,0,0,0,0,0,0,0,0,0,0,0,0,0,0,0,0,0,0,0,0,0,0,0,0,0,0,0,0,0,0,1.2465,1.2467,0,1.2593,1.2594,1.2596,1.2619,1.2618,1.2617,1.2616,1.2749,1.2753,1.2758,0,0,0,0,0,0,0,0,0,0,0,0,0,1.2246,1.225,1.2465,1.2467,1.2469,1.2592,1.2594,1.2596,1.262,1.2618,1.2617,1.2616,1.2748,1.2753,1.2758,0,0,0,0,0,0,0,0,0,0,0,0,0,1.2354,1.2251,1.2465,1.2495,1.2499,1.2592,1.2594,1.2596,1.262,1.2618,1.2617,1.2615,1.2746,1.2752,1.2759,1.2831,0,0,1.278,1.2783,0,0,0,0,0,0,0,0,1.2348,1.2362,1.2489,1.2493,1.2498,1.2589,1.2565,1.2675,1.262,1.2574,1.2616,1.2615,1.2697,1.2708,1.2735,1.2838,1.2843,1.278,1.2784,1.2787,1.2789,0,0,0,0,0,0,0,1.234,1.2357,1.2516,1.2491,1.2496,1.2503,1.2517,1.2586,1.2643,1.2578,1.258,1.2595,1.2699,1.2728,1.2738,1.2845,1.278,1.2786,1.279,1.2793,1.3016,1.3017,0,0,0,0,0,0,1.2327,1.235,1.2512,1.252,1.2418,1.2509,1.2524,1.2561,1.2642,1.2653,1.2596,1.2595,1.2718,1.273,1.2743,1.2835,1.2787,1.2793,1.2797,1.3014,1.3016,1.3018,0,0,0,0,0,0,1.2322,1.2341,1.2507,1.2436,1.2457,1.2514,1.2556,1.2564,1.2594,1.2656,1.2666,1.2615,1.2717,1.2734,1.281,1.2839,1.2796,1.2803,1.3011,1.3014,1.3017,1.3017,0,0,0,0,0,0,1.2316,1.2339,1.2367,1.2436,1.2461,1.257,1.2557,1.2568,1.2605,1.2605,1.2677,1.2687,1.2717,1.2799,1.2816,1.2848,1.2808,1.3009,1.3013,1.3016,1.3014,1.3019,1.3023,0,0,0,0,0,1.2308,1.2362,1.2368,1.2387,1.2496,1.2572,1.2586,1.2619,1.2607,1.2636,1.2676,1.2685,1.2833,1.2807,1.2826,1.286,1.3007,1.3012,1.3016,1.3012,1.3018,1.3023,0,0,0,0,0,0,1.2295,1.2371,1.2379,1.2457,1.2507,1.2575,1.2612,1.2624,1.268,1.2678,1.2717,1.2733,1.2807,1.2841,1.2811,1.2935,1.292,1.2928,1.2911,1.2917,1.2921,1.2912,1.2813,0,0,0,0,0,1.2301,1.2355,1.2419,1.2482,1.2507,1.2555,1.2589,1.261,1.2665,1.2687,1.2732,1.2785,1.2844,1.2882,1.294,1.3019,1.3036,1.3052,1.3057,1.306,1.3067,1.3114,1.3122,1.3032,1.3032,1.3032,0,0,1.2314,1.2363,1.2395,1.248,1.2522,1.2578,1.2573,1.2632,1.2675,1.2696,1.2771,1.2806,1.2868,1.2946,1.2983,1.2977,1.3096,1.3066,1.3068,1.3073,1.3119,1.3127,1.3135,1.3035,1.3034,1.3034,0,0,1.2368,1.2409,1.2466,1.2508,1.2571,1.2603,1.2617,1.2684,1.2708,1.2783,1.28,1.2852,1.2952,1.2996,1.3032,1.3103,1.3114,1.312,1.3144,1.3189,1.3196,1.3203,1.3229,1.3238,1.3127,1.3127,1.3127,0,1.2376,1.2461,1.2494,1.2553,1.2591,1.2612,1.2671,1.271,1.279,1.2816,1.2807,1.2934,1.2978,1.3067,1.3085,1.3112,1.3131,1.3113,1.3192,1.3199,1.3206,1.3232,1.3241,1.3127,1.3127,1.3127,1.3127,0,1.2469,1.2528,1.2567,1.2642,1.2684,1.2743,1.2786,1.2825,1.2843,1.2876,1.2953,1.3006,1.3075,1.3098,1.3116,1.3191,1.3185,1.3184,1.3169,1.3214,1.3239,1.3249,1.3128,1.3128,1.3128,1.3128,0,0,1.2518,1.2611,1.2625,1.266,1.2732,1.2779,1.2839,1.2906,1.2939,1.2993,1.3046,1.313,1.313,1.317,1.3193,1.3232,1.3287,1.3227,1.3229,1.3237,1.3375,1.3376,1.3387,1.3294,1.3296,1.3298,1.337,0,1.2581,1.2688,1.272,1.2811,1.2866,1.2887,1.294,1.2991,1.3023,1.3076,1.3113,1.3173,1.3167,1.3192,1.3231,1.3272,1.3316,1.3267,1.3345,1.3347,1.333,1.34,1.3401,1.3467,1.338,1.3382,1.3383,0,1.2668,1.2724,1.282,1.2885,1.291,1.2957,1.3021,1.3071,1.3129,1.315,1.3196,1.3216,1.3281,1.3262,1.3353,1.3319,1.3353,1.3378,1.3382,1.3391,1.3369,1.3412,1.3488,1.3499,1.3399,1.3397,1.3396,0,1.2696,1.2794,1.2865,1.2894,1.2972,1.3005,1.3039,1.3095,1.3134,1.3191,1.3217,1.3281,1.3316,1.3366,1.3403,1.3385,1.3492,1.3475,1.3512,1.3512,1.3535,1.3533,1.3618,1.3554,1.3554,1.3554,1.3554,0,1.2763,1.2821,1.2878,1.2922,1.2988,1.3025,1.309,1.3126,1.3176,1.3228,1.325,1.3298,1.3344,1.3399,1.3428,1.35,1.3516,1.3536,1.3543,1.3535,1.3532,1.3558,1.3555,1.3557,1.3556,1.3556,1.3555,0,1.2805,1.2845,1.2924,1.2992,1.301,1.3056,1.3115,1.3158,1.3192,1.3258,1.3275,1.3329,1.3394,1.3436,1.352,1.354,1.3619,1.3625,1.3599,1.3603,1.3639,1.3635,1.3744,1.3761,1.3685,1.3686,1.3686,0,1.2846,1.2891,1.2964,1.3,1.3034,1.3092,1.3131,1.317,1.321,1.328,1.3316,1.3383,1.3439,1.3543,1.359,1.3655,1.3663,1.3697,1.3673,1.3663,1.3665,1.3663,1.3668,1.3701,1.3702,1.3702,1.3703,0,1.2915,1.2932,1.2988,1.3052,1.3098,1.315,1.3202,1.323,1.3278,1.3322,1.339,1.3433,1.3519,1.3586,1.3655,1.3691,1.3706,1.371,1.3722,1.3714,1.3698,1.3709,1.3611,1.3707,1.3707,1.3706,1.3706,1.3706,1.2958,1.3,1.3058,1.312,1.3163,1.3211,1.3256,1.3295,1.3351,1.3424,1.3443,1.3514,1.3573,1.3667,1.3705,1.3761,1.3757,1.3775,1.3779,1.3783,1.3784,1.3688,1.3774,1.3774,1.3774,1.3774,1.3774,0,1.3029,1.3067,1.3124,1.3196,1.3245,1.3253,1.3311,1.3352,1.3414,1.3466,1.3521,1.3599,1.3664,1.3717,1.3784,1.382,1.3828,1.3836,1.3835,1.3843,1.3784,1.3767,1.3828,1.3828,1.3828,1.3828,1.3828,1.3828,1.3072,1.3143,1.3168,1.3262,1.33,1.3369,1.3402,1.3447,1.3489,1.3575,1.3629,1.3663,1.3716,1.3788,1.3849,1.3863,1.3887,1.3894,1.3909,1.3853,1.3847,1.3841,1.3826,1.3899,1.3899,1.3964,1.3965,1.3965]},{"header":{"parameterUnit":"m.s-1","parameterCategory":1,"la1":30.2991,"la2":30.254,"lo1":-89.0895,"lo2":-89.0444,"dy":0.0017,"dx":0.0017,"nx":28,"ny":28,"refTime":"2026-02-10T03:00:00:Z","depth":0,"parameterNumber":3,"parameterNumberName":"V-component_of_WINDS"},"data":[0,0,0,0,0,0,0,0,0,0,0,0,0,0,0,0,0,0,0,0,0,0,0,0,0,0,0,0,0,0,0,0,0,0,0,0,0,0,0,0,0,0,0,0,0,0,0,0,0,0,0,0,0,0,0,0,0,0,-0.002,-0.0022,0,-0.014,-0.0142,-0.0143,-0.0165,-0.0164,-0.0163,-0.0162,-0.0291,-0.0295,-0.03,0,0,0,0,0,0,0,0,0,0,0,0,0,0.0184,0.0181,-0.002,-0.0022,-0.0023,-0.014,-0.0142,-0.0144,-0.0166,-0.0164,-0.0163,-0.0162,-0.029,-0.0295,-0.03,0,0,0,0,0,0,0,0,0,0,0,0,0,0.0083,0.0179,-0.002,-0.0048,-0.0052,-0.014,-0.0142,-0.0144,-0.0166,-0.0164,-0.0163,-0.0161,-0.0288,-0.0294,-0.0301,-0.0371,0,0,-0.0321,-0.0323,0,0,0,0,0,0,0,0,0.0089,0.0075,-0.0042,-0.0046,-0.0051,-0.0136,-0.0117,-0.022,-0.0166,-0.0123,-0.0162,-0.0161,-0.0241,-0.0251,-0.0277,-0.0377,-0.0382,-0.0321,-0.0325,-0.0328,-0.033,0,0,0,0,0,0,0,0.0096,0.008,-0.0068,-0.0044,-0.0049,-0.0057,-0.007,-0.0137,-0.0189,-0.0126,-0.0128,-0.0142,-0.0243,-0.0271,-0.0281,-0.0384,-0.0321,-0.0327,-0.0331,-0.0333,-0.0549,-0.0551,0,0,0,0,0,0,0.0108,0.0086,-0.0064,-0.0071,0.0024,-0.0062,-0.0076,-0.011,-0.0188,-0.0199,-0.0143,-0.0142,-0.0261,-0.0273,-0.0285,-0.0374,-0.0328,-0.0334,-0.0338,-0.0547,-0.055,-0.0552,0,0,0,0,0,0,0.0113,0.0095,-0.0059,0.0007,-0.0013,-0.0067,-0.0105,-0.0114,-0.0141,-0.0201,-0.0211,-0.0162,-0.026,-0.0276,-0.0349,-0.0379,-0.0337,-0.0343,-0.0545,-0.0548,-0.0551,-0.0551,0,0,0,0,0,0,0.0119,0.0097,0.0071,0.0007,-0.0017,-0.012,-0.0107,-0.0117,-0.0152,-0.0152,-0.0221,-0.0231,-0.026,-0.0339,-0.0356,-0.0387,-0.0348,-0.0543,-0.0547,-0.055,-0.0548,-0.0553,-0.0557,0,0,0,0,0,0.0126,0.0075,0.007,0.0052,-0.005,-0.0121,-0.0135,-0.0166,-0.0154,-0.0182,-0.022,-0.0229,-0.0372,-0.0347,-0.0365,-0.0399,-0.0541,-0.0546,-0.055,-0.0546,-0.0552,-0.0557,0,0,0,0,0,0,0.0137,0.0066,0.006,-0.0013,-0.0061,-0.0125,-0.016,-0.0171,-0.0224,-0.0222,-0.026,-0.0276,-0.0347,-0.038,-0.0351,-0.0472,-0.0456,-0.0464,-0.0448,-0.0453,-0.0458,-0.0449,-0.0353,0,0,0,0,0,0.0131,0.0081,0.0021,-0.0038,-0.0061,-0.0106,-0.0139,-0.0158,-0.021,-0.0231,-0.0275,-0.0326,-0.0383,-0.042,-0.0475,-0.0553,-0.0569,-0.0585,-0.0589,-0.0593,-0.06,-0.0645,-0.0653,-0.0565,-0.0565,-0.0565,0,0,0.0117,0.0073,0.0043,-0.0037,-0.0076,-0.0129,-0.0123,-0.018,-0.022,-0.024,-0.0312,-0.0346,-0.0406,-0.0482,-0.0518,-0.0512,-0.0628,-0.0598,-0.06,-0.0606,-0.065,-0.0659,-0.0666,-0.0568,-0.0567,-0.0567,0,0,0.0065,0.0028,-0.0026,-0.0065,-0.0124,-0.0154,-0.0167,-0.023,-0.0253,-0.0325,-0.0341,-0.0391,-0.0488,-0.0531,-0.0565,-0.0634,-0.0645,-0.0651,-0.0674,-0.0718,-0.0725,-0.0732,-0.0758,-0.0767,-0.0657,-0.0657,-0.0657,0,0.0056,-0.0023,-0.0053,-0.0109,-0.0145,-0.0163,-0.0219,-0.0257,-0.0332,-0.0357,-0.0348,-0.0471,-0.0513,-0.06,-0.0617,-0.0643,-0.0661,-0.0644,-0.0721,-0.0728,-0.0735,-0.0761,-0.077,-0.0658,-0.0658,-0.0658,-0.0658,0,-0.0033,-0.0088,-0.0125,-0.0195,-0.0235,-0.0291,-0.0331,-0.0368,-0.0384,-0.0416,-0.049,-0.0541,-0.0608,-0.063,-0.0647,-0.072,-0.0715,-0.0713,-0.0699,-0.0743,-0.0768,-0.0778,-0.0659,-0.0658,-0.0658,-0.0658,0,0,-0.0083,-0.0168,-0.0182,-0.0215,-0.0281,-0.0325,-0.0383,-0.0447,-0.0479,-0.053,-0.0581,-0.0662,-0.0662,-0.0701,-0.0723,-0.0761,-0.0815,-0.0756,-0.0758,-0.0767,-0.0902,-0.0903,-0.0914,-0.0822,-0.0824,-0.0825,-0.0897,0,-0.0144,-0.0245,-0.0274,-0.036,-0.0413,-0.0431,-0.0482,-0.053,-0.0561,-0.0611,-0.0646,-0.0704,-0.0698,-0.0722,-0.0761,-0.08,-0.0843,-0.0795,-0.0872,-0.0875,-0.0858,-0.0927,-0.0929,-0.0994,-0.0907,-0.0909,-0.091,0,-0.0229,-0.028,-0.0371,-0.0432,-0.0456,-0.05,-0.0562,-0.0609,-0.0664,-0.0685,-0.0728,-0.0747,-0.081,-0.0791,-0.088,-0.0847,-0.088,-0.0905,-0.0908,-0.0918,-0.0896,-0.094,-0.1015,-0.1026,-0.0925,-0.0924,-0.0923,0,-0.0258,-0.035,-0.0417,-0.0444,-0.0517,-0.0548,-0.058,-0.0634,-0.0671,-0.0725,-0.075,-0.0812,-0.0846,-0.0894,-0.093,-0.0913,-0.1017,-0.1,-0.1038,-0.1037,-0.106,-0.1058,-0.1143,-0.1078,-0.1078,-0.1078,-0.1078,0,-0.0324,-0.038,-0.0431,-0.0472,-0.0536,-0.0569,-0.0632,-0.0665,-0.0713,-0.0763,-0.0783,-0.083,-0.0873,-0.0927,-0.0955,-0.1026,-0.1041,-0.1061,-0.1068,-0.106,-0.1058,-0.1084,-0.1081,-0.1081,-0.108,-0.1079,-0.1079,0,-0.0368,-0.0404,-0.0478,-0.0541,-0.0558,-0.0602,-0.0657,-0.0699,-0.073,-0.0793,-0.081,-0.0861,-0.0925,-0.0965,-0.1046,-0.1066,-0.1144,-0.1149,-0.1125,-0.1129,-0.1165,-0.1161,-0.127,-0.1287,-0.1209,-0.121,-0.121,0,-0.0408,-0.0451,-0.0518,-0.0552,-0.0584,-0.0638,-0.0676,-0.0711,-0.075,-0.0817,-0.0852,-0.0916,-0.097,-0.1072,-0.1117,-0.118,-0.1188,-0.1222,-0.1198,-0.1189,-0.1191,-0.1189,-0.1195,-0.1227,-0.1227,-0.1228,-0.1228,0,-0.0477,-0.0493,-0.0545,-0.0605,-0.0649,-0.0697,-0.0746,-0.0774,-0.0817,-0.086,-0.0925,-0.0967,-0.105,-0.1115,-0.1182,-0.1218,-0.1232,-0.1235,-0.1248,-0.1241,-0.1226,-0.1236,-0.1138,-0.1233,-0.1232,-0.1232,-0.1232,-0.1232,-0.0522,-0.0562,-0.0615,-0.0674,-0.0714,-0.0759,-0.0802,-0.0839,-0.0893,-0.0962,-0.098,-0.1048,-0.1104,-0.1196,-0.1233,-0.1288,-0.1284,-0.1301,-0.1306,-0.131,-0.1312,-0.1215,-0.1301,-0.13,-0.13,-0.13,-0.13,0,-0.0594,-0.0629,-0.0682,-0.0749,-0.0796,-0.0802,-0.0857,-0.0896,-0.0955,-0.1006,-0.1058,-0.1134,-0.1197,-0.1247,-0.1313,-0.1348,-0.1356,-0.1365,-0.1363,-0.1372,-0.1311,-0.1295,-0.1357,-0.1357,-0.1357,-0.1357,-0.1357,-0.1357,-0.0637,-0.0705,-0.0727,-0.0816,-0.0852,-0.0918,-0.0949,-0.0992,-0.1032,-0.1115,-0.1167,-0.1199,-0.125,-0.132,-0.1379,-0.1393,-0.1417,-0.1424,-0.1439,-0.1382,-0.1376,-0.137,-0.1355,-0.1429,-0.1429,-0.1496,-0.1496,-0.1497]}]]